FREGAT DEB, 45889

Orbit data source: Space-Track

FREGAT DEB, 45889 is space debris in LEO originally from a launch on Mon, 18 Jul 2011 UTC launched from the Tyuratam Missile And Space Complex (TTMTR). Debris objects in space refer to the collection of defunct objects orbiting the Earth. Examples of debris include non-operational satellites, rocket bodies, and fragments generated from explosions, collisions, or faulty payload assembly.

Loading next visibility...
FREGAT DEB details
Identifier
45889, 2011-037DJ
Orbit
LEO
Last TLE update12 hours ago
Origin
Flag of CISVVKO VKS (CIS)
ManufacturerLavochkin
MissionSpacecraft
Bus & MotorUnknown
MassUnknown
Launch date (UTC)
2011-07-18 (13 years ago)
Launch vehicleUnknown
Launch site
Tyuratam Missile And Space Complex (TTMTR)
Object type
Payload
Rocket body
Debris
Shape & HBRUnknown
Radar Cross SectionSmall (<0.1 m²)

Expand to show TLE details & history

TLE from 12 hours ago
0 FREGAT DEB
1 45889U 11037DJ  24361.20826210  .00142027  00000-0  22889-1 0  9999
2 45889  51.3674 187.5288 1157875 217.2228 134.2681 12.83264321190028
Epoch: 2024-12-26T04:59Z
Definitive object data (Epoch: 2024-12-26T04:59:53.845Z)
Latitude-0.00007°
Longitude17.36343°
Altitude1,998.795 km
Speed6.594 km/s
True Right ascension12h 30m 06s
True Declination0° 00' 00"
Sunlit
Object was in daylight at TLE epoch
Visualization TLE readout
Latitude36.19999°
Longitude51.39677°
Altitude2,203.273 km
Speed6.423 km/s
Apparent Right ascension12h 36m 49s
Apparent Declination20° 11' 37"
Sunlit
Object is in daylight
Visualization observer readout
Local Sidereal Time15:53:41
Azimuth259.744° W
Elevation43.763°
Doppler factor1
Orbital elements
Apogee altitude2,221.247 km
Perigee altitude436.497 km
Semi-major axis7,707.009 km
Eccentricity0.1157875
Inclination51.3674°
RAAN187.5288°
Arg. of periapsis217.2228°
True anomaly142.86285°
Mean anomaly134.2681°
Eccentric anomaly138.65091°
Mean motion3.20785 °/min
BSTAR0.022889
Orbital period112.22 mins
Loading maneuver chart data...
Loading historical data...
Loading historical data...
Loading historical data...
Loading historical data...
Loading historical data...
Loading historical data...
Loading historical data...

FREGAT DEB Visibility forecast

Observer location: undefined°, undefined

Span
Click to sort rows by Start time (UTC) header in descending order
Start Az.
Max El. time (UTC)
Max El. Az.
Max El.
End time (UTC)
End Az.
16 mins2024-12-26 16:31:30.751Z259.454° W2024-12-26 16:36:30.751Z320.591° NNW43.386°2024-12-26 16:47:30.751Z53.21° ENE
19 mins2024-12-26 18:26:30.751Z284.011° WNW2024-12-26 18:37:30.751Z356.581° N35.984°2024-12-26 18:45:30.751Z60.75° ENE
17 mins2024-12-26 20:27:30.751Z304.218° NW2024-12-26 20:37:30.751Z16.879° NNE38.178°2024-12-26 20:44:30.751Z90.455° ESE
14 mins2024-12-26 22:27:30.751Z304.083° NW2024-12-26 22:36:30.751Z197.145° SSW43.115°2024-12-26 22:41:30.751Z142.151° SSE
4 mins2024-12-27 00:29:30.751Z265.352° W2024-12-27 00:31:30.751Z248.227° W13.107°2024-12-27 00:33:30.751Z228.889° WSW
18 mins2024-12-27 12:51:30.751Z163.501° S2024-12-27 12:59:30.751Z120.557° SE24.439°2024-12-27 13:09:30.751Z69.748° E
24 mins2024-12-27 14:45:30.751Z216.602° SW2024-12-27 14:57:30.751Z128.832° SE43.805°2024-12-27 15:09:30.751Z55.342° ENE
|